Weather in Log

Russia / Volgograd Oblast     49°28′53″N   43°51′33″E
temp.,
°C
wind,
m/s
gust,
m/s
humid.,
%
clouds,
%
prec.,
mm/h
press.,
hPa
HPBL,
m
4 march, thu
thu400:00−2wnw4107723 0.0 1019690
03:00−2w598054 0.0 1019369
06:00−2wsw7137620 0.0 1018467
09:00+1wsw9156022 0.0 1017862
12:00+4wsw1014460 0.0 10161254
15:00+5wsw1014430 0.0 10141391
18:00+2sw715590 0.0 1012478
21:00+2sw716670 0.0 1012559
5 march, fri
fri500:00+1wsw818790 0.0 1010580
03:00+2wsw8177927 0.0 1010630
06:00+2wsw8168567 0.0 1009669
09:00+3wsw8148383 0.0 1010715
12:00+4wsw81388100 0.1 1010684
15:00+5w61179100 0.4 1011752
18:00+2nw4897100 0.6 1013349
21:00+1nw3498100 0.9 1015188
6 march, sat
sat600:000ene2398100 0.5 1014140
03:000ene3598100 1.7 1014243
06:00−1ene5897100 1.6 1013402
09:00−1ene71195100 4.2 1012527
12:00−1ene71196100 2.8 1011609
15:00−1ne6995100 3.6 1011600
18:00−3nne5991100 0.5 1012539
21:00−4nne4892100 0.6 1014420
7 march, sun
sun700:00−6n239261 0.0 101534
03:00−6nw229258 0.0 101740
06:00−6wsw129461 0.0 101821
09:00−4w469173 0.1 1020439
12:00−2wnw568699 0.1 1020731
15:00−2wsw7107391 0.1 1018959
18:00−3sw5127999 0.0 1017729
21:00−3sw71671100 0.0 1016786
8 march, mon
mon800:00−2sw91770100 0.0 1014734
03:00−3sw8167392 0.0 1012634
06:00−2wsw8167693 0.0 1011621
09:00−1wsw9157588 0.0 1010810
12:00+1wsw101574100 0.0 10091469
15:00+2w101676100 0.1 10091381
18:00+1w7148094 0.0 1011718
21:00−1n378290 0.4 1014448